FW7181 Weather Reports


time (UTC)temp
F
wind
direction
speed
knots
gust
knots
rain 1hr
in
rain 24hr
in
rain mn
in
humidity
%
barometer
mb
20260506015513 62 219 0.9 0.9 0.00 0.00 0.00 71 1008.0
20260506015010 60 89 0.9 0.9 0.00 0.00 0.00 74 1008.1
20260506014507 60 198 0.9 0.9 0.00 0.00 0.00 73 1008.2
20260506014003 60 222 0.0 0.0 0.00 0.00 0.00 76 1008.0
20260506013501 61 208 0.0 0.0 0.00 0.00 0.00 74 1008.0
20260506012957 62 229 0.0 0.0 0.00 0.00 0.00 73 1008.2
20260506012454 63 194 0.9 0.9 0.00 0.00 0.00 70 1008.1
20260506011951 63 241 0.9 0.9 0.00 0.00 0.00 71 1008.0
20260506011448 64 219 0.0 0.0 0.00 0.00 0.00 69 1008.1
20260506010944 65 198 0.0 0.0 0.00 0.00 0.00 67 1008.1
20260506010443 65 176 3.5 4.3 0.00 0.00 0.00 64 1008.2
20260506005939 65 168 4.3 5.2 0.00 0.00 0.00 64 1007.9
20260506005437 65 198 4.3 5.2 0.00 0.00 0.00 64 1008.1
20260506004932 66 166 5.2 6.1 0.00 0.00 0.00 64 1008.0
20260506004431 66 194 4.3 6.1 0.00 0.00 0.00 63 1008.2
20260506003926 66 156 4.3 6.1 0.00 0.00 0.00 63 1008.0
20260506003423 66 183 6.1 8.7 0.00 0.00 0.00 63 1008.1
20260506002920 66 190 5.2 6.1 0.00 0.00 0.00 62 1008.1
20260506002415 66 171 5.2 7.0 0.00 0.00 0.00 62 1008.1
20260506001911 66 160 6.1 7.8 0.00 0.00 0.00 62 1008.1
20260506001408 66 200 6.1 7.0 0.00 0.00 0.00 62 1008.2
20260506000906 66 169 4.3 6.1 0.00 0.00 0.00 62 1008.0
20260506000403 66 195 7.8 9.6 0.00 0.00 0.00 61 1008.1
20260505235859 67 137 4.3 6.1 0.00 0.00 0.00 61 1007.8
20260505235358 67 239 7.8 12.2 0.00 0.00 0.00 60 1008.0
20260505234854 67 201 7.8 8.7 0.00 0.00 0.00 60 1008.0
20260505234352 67 135 9.6 11.3 0.00 0.00 0.00 61 1007.9
20260505233848 67 165 7.8 9.6 0.00 0.00 0.00 60 1008.0
20260505233347 67 173 5.2 7.8 0.00 0.00 0.00 60 1007.6
20260505232844 67 225 7.8 7.8 0.00 0.00 0.00 59 1007.5
20260505232342 67 205 6.1 7.0 0.00 0.00 0.00 59 1007.5
20260505231838 67 205 7.8 11.3 0.00 0.00 0.00 59 1007.7
20260505231335 67 191 6.1 8.7 0.00 0.00 0.00 59 1007.7
20260505230834 67 198 2.6 5.2 0.00 0.00 0.00 58 1007.7
20260505230330 67 190 10.4 13.0 0.00 0.00 0.00 58 1007.5
20260505225827 67 221 7.8 8.7 0.00 0.00 0.00 57 1007.7
20260505225324 67 180 7.8 7.8 0.00 0.00 0.00 56 1007.8
20260505224819 67 161 4.3 5.2 0.00 0.00 0.00 56 1007.6
20260505224318 68 166 6.1 7.0 0.00 0.00 0.00 55 1007.7
20260505223814 68 192 4.3 6.1 0.00 0.00 0.00 55 1007.9
20260505223311 68 166 4.3 6.1 0.00 0.00 0.00 55 1007.7
20260505222807 68 138 4.3 5.2 0.00 0.00 0.00 54 1007.7
20260505222305 68 180 4.3 6.1 0.00 0.00 0.00 55 1007.8
20260505221801 68 172 3.5 5.2 0.00 0.00 0.00 54 1008.0
20260505221257 68 155 3.5 4.3 0.00 0.00 0.00 54 1007.9
20260505220754 68 100 3.5 4.3 0.00 0.00 0.00 54 1008.0
20260505220251 68 189 1.7 2.6 0.00 0.00 0.00 54 1007.7
20260505215749 68 149 4.3 6.1 0.00 0.00 0.00 53 1007.8
20260505215247 68 256 2.6 4.3 0.00 0.00 0.00 52 1007.7
20260505214744 68 226 2.6 4.3 0.00 0.00 0.00 55 1007.7
20260505214241 68 172 7.8 11.3 0.00 0.00 0.00 52 1007.2
20260505213738 68 120 2.6 5.2 0.00 0.00 0.00 52 1007.5
20260505213236 68 198 6.1 7.0 0.00 0.00 0.00 53 1007.7
20260505212732 68 175 2.6 2.6 0.00 0.00 0.00 52 1007.8
20260505212230 68 349 3.5 4.3 0.00 0.00 0.00 52 1007.6
20260505211726 68 159 2.6 5.2 0.00 0.00 0.00 52 1007.6
20260505211224 68 341 2.6 5.2 0.00 0.00 0.00 50 1007.9
20260505210720 68 122 7.0 13.0 0.00 0.00 0.00 50 1007.8
20260505210217 69 34 5.2 7.0 0.00 0.00 0.00 50 1007.7
20260505205714 69 64 6.1 7.8 0.00 0.00 0.00 49 1007.8
20260505205212 69 115 5.2 7.8 0.00 0.00 0.00 50 1007.6
20260505204708 69 161 14.8 20.0 0.00 0.00 0.00 48 1007.6
20260505204207 70 227 8.7 12.2 0.00 0.00 0.00 49 1007.7
20260505203704 70 172 16.5 20.9 0.00 0.00 0.00 47 1007.7
20260505203200 70 131 10.4 14.8 0.00 0.00 0.00 47 1007.6
20260505202656 71 158 10.4 15.6 0.00 0.00 0.00 46 1007.4
20260505202152 71 310 2.6 4.3 0.00 0.00 0.00 47 1007.6
20260505201648 71 165 4.3 5.2 0.00 0.00 0.00 48 1007.6
20260505201147 71 178 1.7 2.6 0.00 0.00 0.00 50 1007.5
20260505200645 71 158 9.6 13.0 0.00 0.00 0.00 48 1007.3
20260505200141 70 174 14.8 15.6 0.00 0.00 0.00 49 1007.7
20260505195637 70 183 15.6 19.1 0.00 0.00 0.00 50 1007.1
20260505195135 69 176 7.8 9.6 0.00 0.00 0.00 52 1007.4
20260505194632 69 171 13.9 20.0 0.00 0.00 0.00 53 1007.5
20260505194128 69 158 8.7 12.2 0.00 0.00 0.00 52 1007.7
20260505193625 69 149 7.0 8.7 0.00 0.00 0.00 52 1007.5
20260505193122 69 127 7.0 8.7 0.00 0.00 0.00 52 1007.5
20260505192620 69 169 9.6 12.2 0.00 0.00 0.00 51 1007.4
20260505192117 70 185 12.2 14.8 0.00 0.00 0.00 51 1007.5
20260505191616 70 178 8.7 12.2 0.00 0.00 0.00 51 1007.6
20260505191113 70 169 1.7 2.6 0.00 0.00 0.00 51 1007.4
20260505190609 70 154 8.7 12.2 0.00 0.00 0.00 51 1007.5
20260505190104 70 128 11.3 15.6 0.00 0.00 0.00 51 1007.4
20260505185601 71 178 9.6 13.9 0.00 0.00 0.00 51 1007.4
20260505185057 71 163 7.8 8.7 0.00 0.00 0.00 50 1007.5
20260505184554 71 143 2.6 6.1 0.00 0.00 0.00 50 1007.5
20260505184051 71 92 4.3 5.2 0.00 0.00 0.00 51 1007.5
20260505183547 71 86 3.5 4.3 0.00 0.00 0.00 51 1007.5
20260505183045 71 22 5.2 7.8 0.00 0.00 0.00 51 1007.8
20260505182541 70 333 5.2 7.8 0.00 0.00 0.00 51 1007.6
20260505182037 70 189 5.2 9.6 0.00 0.00 0.00 51 1007.7
20260505181535 70 153 4.3 5.2 0.00 0.00 0.00 53 1007.4
20260505181032 70 187 6.1 7.8 0.00 0.00 0.00 53 1007.7
20260505180527 70 155 11.3 17.4 0.00 0.00 0.00 53 1007.5
20260505180026 70 175 12.2 14.8 0.00 0.00 0.00 52 1007.5
20260505175520 70 176 9.6 13.0 0.00 0.00 0.00 53 1007.3
20260505175018 71 334 4.3 7.0 0.00 0.00 0.00 53 1007.3
20260505174515 69 139 7.8 8.7 0.00 0.00 0.00 54 1007.2
20260505174011 69 159 2.6 2.6 0.00 0.00 0.00 55 1007.4
20260505173507 69 184 4.3 7.0 0.00 0.00 0.00 56 1007.6
20260505173004 68 170 11.3 13.9 0.00 0.00 0.00 55 1007.5
20260505172503 68 170 4.3 9.6 0.00 0.00 0.00 56 1007.5
20260505172002 68 185 8.7 13.9 0.00 0.00 0.00 56 1007.5
20260505171458 68 141 5.2 6.1 0.00 0.00 0.00 56 1007.5
20260505170955 68 146 7.0 9.6 0.00 0.00 0.00 55 1007.6
20260505170447 67 170 9.6 12.2 0.00 0.00 0.00 57 1007.5
20260505165942 67 143 7.0 7.8 0.00 0.00 0.00 58 1007.6
20260505165438 68 63 4.3 5.2 0.00 0.00 0.00 56 1007.5
20260505164934 68 169 7.8 11.3 0.00 0.00 0.00 54 1007.3
20260505164431 69 181 9.6 13.9 0.00 0.00 0.00 54 1007.3
20260505163928 69 145 7.0 9.6 0.00 0.00 0.00 54 1007.5
20260505163427 69 146 11.3 13.9 0.00 0.00 0.00 54 1007.5
20260505162925 69 175 9.6 11.3 0.00 0.00 0.00 54 1007.6
20260505162415 69 188 7.0 13.9 0.00 0.00 0.00 55 1007.6
20260505161912 69 208 15.6 20.9 0.00 0.00 0.00 53 1007.5
20260505161403 69 186 11.3 17.4 0.00 0.00 0.00 53 1007.6
20260505160900 69 180 11.3 20.0 0.00 0.00 0.00 53 1007.3
20260505160359 69 176 14.8 20.0 0.00 0.00 0.00 53 1007.5
20260505153337 68 167 11.3 17.4 0.00 0.00 0.00 56 1007.5
20260505152834 68 182 9.6 13.0 0.00 0.00 0.00 57 1007.7
20260505152332 68 175 13.0 15.6 0.00 0.00 0.00 57 1007.7
20260505151831 68 176 5.2 7.8 0.00 0.00 0.00 58 1007.9
20260505151328 68 207 2.6 5.2 0.00 0.00 0.00 57 1007.8
20260505150826 67 200 11.3 15.6 0.00 0.00 0.00 59 1007.9
20260505150323 68 158 11.3 14.8 0.00 0.00 0.00 58 1008.1
20260505140252 66 138 11.3 21.7 0.00 0.00 0.00 60 1008.0
20260505130216 65 182 7.8 9.6 0.00 0.00 0.00 62 1007.8
20260505124706 64 174 9.6 12.2 0.00 0.00 0.00 64 1008.2
20260505124203 64 198 6.1 7.8 0.00 0.00 0.00 65 1007.9
20260505123659 63 172 9.6 15.6 0.00 0.00 0.00 65 1008.0
20260505123156 63 158 8.7 11.3 0.00 0.00 0.00 66 1008.0
20260505122652 63 186 12.2 18.2 0.00 0.00 0.00 66 1008.3
20260505122149 63 217 13.0 17.4 0.00 0.00 0.00 67 1008.2
20260505121646 62 186 9.6 17.4 0.00 0.00 0.00 67 1008.1
20260505121143 62 192 9.6 12.2 0.00 0.00 0.00 68 1008.1
20260505120639 62 203 4.3 7.0 0.00 0.00 0.00 68 1008.3
20260505120136 62 153 7.8 13.0 0.00 0.00 0.00 69 1008.1
20260505115629 61 206 11.3 14.8 0.00 0.00 0.00 69 1008.1
20260505115127 61 193 9.6 15.6 0.00 0.00 0.00 69 1008.1
20260505114624 61 145 6.1 7.0 0.00 0.00 0.00 68 1008.3
20260505114120 61 190 9.6 13.0 0.00 0.00 0.00 67 1008.2
20260505113617 61 193 10.4 13.9 0.00 0.00 0.00 67 1008.2
20260505113113 61 195 8.7 11.3 0.00 0.00 0.00 67 1008.2
20260505112609 61 238 12.2 17.4 0.00 0.00 0.00 67 1008.2
20260505112108 61 198 8.7 11.3 0.00 0.00 0.00 67 1008.2
20260505111602 61 194 9.6 12.2 0.00 0.00 0.00 68 1008.2
20260505111058 60 182 7.0 8.7 0.00 0.00 0.00 68 1008.0
20260505110554 60 122 2.6 4.3 0.00 0.00 0.00 67 1008.0
20260505102027 60 164 7.8 8.7 0.00 0.00 0.00 68 1007.3
20260505101526 60 163 6.1 7.8 0.00 0.00 0.00 68 1007.2
20260505101021 60 226 4.3 5.2 0.00 0.00 0.00 69 1007.1
20260505100519 60 169 8.7 11.3 0.00 0.00 0.00 68 1007.2
20260505100016 60 146 8.7 11.3 0.00 0.00 0.00 69 1007.1
20260505095511 60 152 6.1 7.8 0.00 0.00 0.00 68 1007.2
20260505095008 60 163 5.2 7.0 0.00 0.00 0.00 69 1007.3
20260505094504 60 172 5.2 7.0 0.00 0.00 0.00 68 1007.1
20260505094001 60 163 6.1 7.8 0.00 0.00 0.00 68 1007.2
20260505093457 60 193 5.2 7.0 0.00 0.00 0.00 68 1007.0
20260505092955 60 184 7.0 8.7 0.00 0.00 0.00 68 1007.2
20260505092452 60 151 6.1 7.0 0.00 0.00 0.00 68 1007.0
20260505091950 60 184 5.2 7.8 0.00 0.00 0.00 67 1007.1
20260505091447 60 150 5.2 7.0 0.00 0.00 0.00 67 1006.9
20260505090945 60 145 3.5 7.0 0.00 0.00 0.00 67 1007.1
20260505090443 61 186 5.2 7.8 0.00 0.00 0.00 67 1007.1
20260505085940 61 197 7.8 11.3 0.00 0.00 0.00 67 1007.1
20260505085438 61 138 6.1 7.8 0.00 0.00 0.00 67 1006.9
20260505084936 60 159 6.1 7.0 0.00 0.00 0.00 67 1007.0
20260505084434 60 165 4.3 5.2 0.00 0.00 0.00 68 1007.0
20260505083931 60 161 5.2 7.0 0.00 0.00 0.00 68 1007.0
20260505083429 60 174 7.0 7.8 0.00 0.00 0.00 68 1006.9
20260505082925 60 172 4.3 5.2 0.00 0.00 0.00 69 1007.0
20260505082420 60 88 1.7 1.7 0.00 0.00 0.00 69 1006.8
20260505081918 60 145 3.5 5.2 0.00 0.00 0.00 70 1007.0
20260505081415 59 152 2.6 4.3 0.00 0.00 0.00 72 1006.9
20260505080911 57 178 5.2 7.0 0.00 0.00 0.00 73 1007.0
20260505080407 57 109 0.9 0.9 0.00 0.00 0.00 81 1006.6
20260505075903 59 14 1.7 1.7 0.00 0.00 0.00 76 1007.1
20260505075400 60 187 6.1 7.8 0.00 0.00 0.00 69 1006.8
20260505074857 60 124 7.0 7.8 0.00 0.00 0.00 69 1006.8
20260505074354 59 136 2.6 4.3 0.00 0.00 0.00 69 1007.0
20260505073851 60 186 6.1 7.8 0.00 0.00 0.00 69 1006.9
20260505073344 0 0.0 0.0 0.00 0.00 0.00 1006.9
20260505072840 60 185 6.1 7.0 0.00 0.00 0.00 67 1007.0
20260505072336 60 185 6.1 7.0 0.00 0.00 0.00 67 1006.9
20260505071832 60 170 5.2 7.8 0.00 0.00 0.00 68 1006.9
20260505071329 60 171 2.6 5.2 0.00 0.00 0.00 69 1007.0
20260505070828 60 154 4.3 6.1 0.00 0.00 0.00 69 1006.9
20260505070324 60 147 4.3 5.2 0.00 0.00 0.00 68 1006.6
20260505065819 60 98 4.3 6.1 0.00 0.00 0.00 68 1006.8
20260505065316 60 180 4.3 6.1 0.00 0.00 0.00 68 1006.6
20260505064813 60 169 4.3 5.2 0.00 0.00 0.00 67 1006.8
20260505064310 60 160 6.1 7.0 0.00 0.00 0.00 68 1006.6
20260505063808 59 128 5.2 6.1 0.00 0.00 0.00 69 1006.9
20260505063304 59 176 1.7 2.6 0.00 0.00 0.00 71 1007.0
20260505062800 60 167 3.5 5.2 0.00 0.00 0.00 68 1006.6
20260505062258 59 185 3.5 5.2 0.00 0.00 0.00 69 1007.0
20260505061755 59 69 3.5 4.3 0.00 0.00 0.00 69 1006.9
20260505061253 59 139 5.2 7.8 0.00 0.00 0.00 69 1007.1
20260505060750 59 100 3.5 4.3 0.00 0.00 0.00 69 1007.0
20260505060247 58 144 4.3 5.2 0.00 0.00 0.00 70 1007.1
20260505055742 58 170 5.2 6.1 0.00 0.00 0.00 70 1007.1
20260505055239 58 170 5.2 6.1 0.00 0.00 0.00 70 1007.2
20260505054736 59 125 5.2 7.0 0.00 0.00 0.00 69 1007.0
20260505054234 59 132 5.2 6.1 0.00 0.00 0.00 69 1007.1
20260505053732 59 173 4.3 6.1 0.00 0.00 0.00 69 1007.1
20260505053228 59 217 4.3 5.2 0.00 0.00 0.00 69 1007.2
20260505052725 59 173 4.3 7.0 0.00 0.00 0.00 70 1007.3
20260505052222 57 187 3.5 5.2 0.00 0.00 0.00 71 1007.4
20260505051719 58 160 2.6 2.6 0.00 0.00 0.00 70 1007.3
20260505051217 57 171 6.1 7.8 0.00 0.00 0.00 73 1007.1
20260505050715 57 219 0.9 1.7 0.00 0.00 0.00 72 1007.4
20260505050213 57 172 2.6 4.3 0.00 0.00 0.00 75 1007.6
20260505041637 58 162 2.6 5.2 0.00 0.00 0.00 71 1007.6
20260505041134 59 183 0.9 0.9 0.00 0.00 0.00 71 1007.5
20260505040631 60 170 2.6 4.3 0.00 0.00 0.00 68 1007.8
20260505040128 60 160 2.6 2.6 0.00 0.00 0.00 68 1007.5
20260505035624 60 165 4.3 7.0 0.00 0.00 0.00 68 1007.4
20260505035121 60 162 3.5 4.3 0.00 0.00 0.00 67 1007.5
20260505034618 61 125 6.1 7.0 0.00 0.00 0.00 67 1007.8
20260505034114 61 177 4.3 5.2 0.00 0.00 0.00 66 1007.6
20260505033611 61 174 2.6 6.1 0.00 0.00 0.00 66 1007.8
20260505033110 61 180 7.8 9.6 0.00 0.00 0.00 66 1007.7
20260505032607 61 202 7.0 7.0 0.00 0.00 0.00 66 1007.7
20260505032103 61 176 5.2 6.1 0.00 0.00 0.00 65 1007.6
20260505031601 62 145 7.0 9.6 0.00 0.00 0.00 65 1007.6
20260505031057 62 187 6.1 7.8 0.00 0.00 0.00 65 1007.6
20260505030554 62 157 7.0 8.7 0.00 0.00 0.00 64 1007.7
20260505030050 62 172 4.3 6.1 0.00 0.00 0.00 64 1007.8
20260505025545 62 205 6.1 7.8 0.00 0.00 0.00 63 1007.6
20260505025045 62 213 6.1 7.8 0.00 0.00 0.00 63 1007.7
20260505024541 62 166 5.2 8.7 0.00 0.00 0.00 63 1007.9
20260505024039 62 181 7.0 8.7 0.00 0.00 0.00 62 1007.9
20260505023536 62 164 4.3 5.2 0.00 0.00 0.00 62 1007.9
20260505023033 62 175 4.3 6.1 0.00 0.00 0.00 62 1008.0
20260505022530 63 186 2.6 4.3 0.00 0.00 0.00 61 1007.6
20260505022027 62 189 3.5 4.3 0.00 0.00 0.00 61 1007.7
20260505021524 62 182 3.5 4.3 0.00 0.00 0.00 61 1007.7
20260505021021 63 189 1.7 2.6 0.00 0.00 0.00 61 1007.7
20260505020521 63 207 4.3 5.2 0.00 0.00 0.00 60 1007.7
20260505020018 63 171 1.7 1.7 0.00 0.00 0.00 59 1007.9